CAPE
0 2 5 4 0 3 10 7 1 1 12 58 108 104 64 2 3 2 2 0 0 0
0 1 2 2 0 1 0 0 0 2 1 1 97 33 34 2 2 3 4 1 0 0
3 3 2 3 1 2 1 5 0 3 5 11 1 15 6 2 1 0 0 0 0 0
2 2 1 2 2 2 3 3 2 1 3 7 0 1 1 1 1 1 1 1 0 0
2 1 2 4 2 3 3 0 0 1 2 3 0 0 0 0 2 0 1 0 0 0
2 1 2 4 2 1 1 1 0 0 1 1 0 0 0 0 1 0 0 0 0 0
1 0 0 0 0 1 1 1 1 0 1 0 0 0 0 0 0 0 0 0 0 0
0 0 0 0 0 0 0 1 1 0 0 0 0 0 0 0 0 0 0 0 0 0
0 0 0 0 0 0 0 0 0 1 1 1 2 5 2 0 0 0 0 0 1 0
0 0 0 0 0 0 0 0 0 1 1 3 5 9 7 3 0 0 0 0 0 1
0 0 0 0 0 0 0 0 0 0 0 1 5 6 2 0 0 0 0 0 0 0
0 0 0 0 0 0 0 0 0 0 0 0 0 1 0 0 0 0 0 0 0 0
0 0 0 0 0 0 0 0 0 0 0 0 0 0 0 0 0 0 0 0 0 0
0 0 0 0 0 0 0 0 0 0 0 0 0 0 0 0 0 0 0 0 0 1
CIN
0 0 0 0 0 0 0 -1 -2 0 -38 -57 -34 -34 -60 -143 0 0 -1 0 0 0
0 0 0 0 0 0 0 0 -7 0 0 0 -15 -51 -48 -2 0 0 0 0 0 0
0 0 0 0 0 0 0 0 -3 -1 0 -1 -2 -26 -47 0 0 0 0 0 0 0
0 0 0 0 0 0 0 0 0 -1 -1 -1 0 0 -2 0 0 0 0 0 0 0
0 0 0 0 0 0 0 0 0 0 0 -31 0 0 0 0 0 0 0 0 0 0
0 0 0 0 0 0 0 0 0 0 0 0 0 0 0 0 0 0 0 0 0 0
0 0 0 0 0 0 0 0 0 0 0 0 0 0 0 0 0 0 0 0 0 0
0 0 0 0 0 0 0 0 0 0 0 0 0 0 0 0 0 0 0 0 0 0
0 0 0 0 0 0 0 0 0 0 0 0 0 0 0 0 0 0 0 0 0 0
0 0 0 0 0 0 0 0 0 0 0 0 0 0 0 0 0 0 0 0 0 0
0 0 0 0 0 0 0 0 0 0 0 0 0 0 0 0 0 0 0 0 0 0
0 0 0 0 0 0 0 0 0 0 0 0 0 0 0 0 0 0 0 0 0 0
0 0 0 0 0 0 0 0 0 0 0 0 0 0 0 0 0 0 0 0 0 0
0 0 0 0 0 0 0 0 0 0 0 0 0 0 0 0 0 0 0 0 0 0
Wind_Speed
6 4 4 4 2 1 2 4 5 4 5 10 11 10 9 8 9 11 9 12 7 2
7 7 5 4 3 2 3 3 4 5 5 4 8 11 10 8 11 11 12 10 9 4
6 5 4 4 3 0 3 5 6 6 7 8 6 8 10 8 10 10 7 8 10 7
5 5 5 4 3 2 3 3 4 5 6 7 7 9 8 7 11 11 10 9 12 11
5 5 5 4 4 3 2 1 2 4 6 6 7 8 9 10 11 13 13 11 10 9
5 5 5 5 3 5 5 4 4 3 6 7 8 9 8 11 11 11 12 11 10 10
5 6 5 6 4 7 5 5 6 7 8 10 10 10 10 11 10 10 10 10 9 8
5 6 7 6 6 6 6 6 7 9 9 10 9 7 10 10 10 11 11 10 9 8
7 7 8 8 8 7 7 7 8 9 9 10 7 19 19 14 11 10 11 10 9 9
8 7 8 9 9 9 8 8 9 10 10 11 11 20 21 20 10 11 10 10 9 9
8 8 9 10 10 9 8 9 9 10 11 11 11 21 22 21 11 10 10 9 10 11
9 9 9 10 10 8 9 9 9 10 11 14 12 21 21 17 13 14 13 12 11 11
8 9 10 10 9 6 9 8 8 11 12 17 15 19 20 16 11 13 10 11 12 14
9 10 11 10 10 10 10 11 11 12 10 12 13 14 18 17 11 10 9 9 8 7
Wind_Direction
87 82 72 52 25 282 211 214 199 203 201 206 201 205 189 181 181 183 188 176 166 158
112 113 121 127 138 210 229 224 226 222 216 240 198 189 181 184 182 179 187 175 150 121
121 120 106 83 61 8 230 224 213 208 209 217 198 191 189 171 169 164 145 136 124 110
104 95 88 78 48 10 322 271 229 222 214 201 178 178 156 155 156 146 124 128 128 114
93 90 89 87 79 75 78 45 248 229 216 176 155 154 150 141 139 137 132 127 120 126
99 92 79 76 46 73 54 56 53 71 107 110 116 114 116 124 122 121 129 127 120 128
91 90 81 71 42 59 47 67 77 65 88 97 100 102 107 105 106 104 99 103 116 120
103 97 96 87 78 62 49 47 73 82 82 85 89 96 97 100 101 103 97 93 97 99
105 99 96 87 77 73 58 49 71 76 84 88 94 109 109 106 101 96 101 103 90 84
111 104 96 92 80 74 71 65 60 71 80 85 92 101 102 98 91 93 94 98 100 95
118 108 99 94 89 79 77 78 78 75 78 83 90 98 97 95 92 92 87 91 98 101
126 116 107 95 92 83 88 82 84 93 99 101 100 106 105 100 96 94 92 92 92 96
127 122 117 114 105 94 96 93 93 91 96 103 107 110 109 107 108 105 103 97 96 93
124 125 125 116 117 114 106 103 98 93 88 93 103 109 109 109 106 106 101 100 95 89